Terug naar catalogus

STARLINK-31019

ActiefCommunicatieVLEO
NORAD 58540·PAYLOAD·🇺🇸 United States

Gelanceerd Dec 8, 2023 vanaf Vandenberg Space Force Base

Loading…

Volgende Passages (komende 24 uur)

TLE

VersSource: CelesTrak SupGP

Epoch: Sep 14, 2026, 21:01 UTC

1 58540C 23192K   26257.87618056  .00051711  00000+0  15282-2 0  2573
2 58540  53.1583 260.1413 0001250  91.7008 314.6619 15.34356629    14

Volg STARLINK-31019 in realtime met AllMySat

Download on the App Store